| time (UTC) | temp F | wind direction | speed MPH | gust MPH | rain 1hr in | rain 24hr in | rain mn in | humidity % | barometer mb |
| 20260903160011 | 55 | 129 | 2.0 | 4.0 | 0.00 | 0.27 | 0.08 | 95 | 1009.6 |
| 20260903154510 | 55 | 113 | 4.0 | 8.0 | 0.00 | 0.27 | 0.08 | 95 | 1009.6 |
| 20260903153008 | 55 | 172 | 2.0 | 6.0 | 0.00 | 0.27 | 0.08 | 95 | 1009.7 |
| 20260903151507 | 54 | 138 | 2.0 | 8.0 | 0.00 | 0.27 | 0.08 | 95 | 1009.6 |
| 20260903150005 | 54 | 120 | 4.0 | 8.0 | 0.01 | 0.27 | 0.08 | 95 | 1009.4 |
| 20260903144502 | 54 | 123 | 4.0 | 9.0 | 0.01 | 0.27 | 0.08 | 94 | 1009.3 |
| 20260903143059 | 53 | 109 | 5.0 | 7.0 | 0.02 | 0.27 | 0.08 | 93 | 1009.2 |
| 20260903141557 | 54 | 144 | 3.0 | 7.0 | 0.02 | 0.27 | 0.08 | 93 | 1009.1 |
| 20260903140107 | 54 | 139 | 4.0 | 7.0 | 0.01 | 0.26 | 0.07 | 93 | 1009.1 |
| 20260903134554 | 54 | 143 | 3.0 | 7.0 | 0.03 | 0.26 | 0.07 | 93 | 1009.1 |
| 20260903133053 | 54 | 134 | 2.0 | 8.0 | 0.04 | 0.25 | 0.06 | 92 | 1008.9 |
| 20260903131554 | 54 | 114 | 4.0 | 7.0 | 0.04 | 0.25 | 0.06 | 91 | 1008.8 |
| 20260903130054 | 54 | 132 | 3.0 | 8.0 | 0.05 | 0.25 | 0.06 | 91 | 1008.8 |
| 20260903124550 | 54 | 136 | 2.0 | 7.0 | 0.04 | 0.23 | 0.04 | 90 | 1008.7 |
| 20260903123047 | 55 | 130 | 3.0 | 6.0 | 0.02 | 0.21 | 0.02 | 88 | 1008.8 |
| 20260903121546 | 55 | 130 | 3.0 | 7.0 | 0.02 | 0.21 | 0.02 | 87 | 1008.7 |
| 20260903120055 | 55 | 147 | 1.0 | 5.0 | 0.01 | 0.20 | 0.01 | 85 | 1008.6 |
| 20260903114542 | 55 | 168 | 3.0 | 7.0 | 0.00 | 0.19 | 0.00 | 85 | 1008.5 |
| 20260903113047 | 55 | 140 | 3.0 | 7.0 | 0.00 | 0.19 | 0.00 | 85 | 1008.4 |
| 20260903111540 | 55 | 142 | 3.0 | 7.0 | 0.00 | 0.19 | 0.00 | 85 | 1008.3 |
| 20260903110040 | 55 | 146 | 3.0 | 8.0 | 0.00 | 0.19 | 0.00 | 84 | 1008.3 |
| 20260903104539 | 55 | 127 | 5.0 | 9.0 | 0.00 | 0.19 | 0.00 | 85 | 1008.3 |
| 20260903103038 | 55 | 103 | 4.0 | 8.0 | 0.00 | 0.19 | 0.00 | 86 | 1008.2 |
| 20260903101545 | 55 | 165 | 5.0 | 10.0 | 0.00 | 0.19 | 0.00 | 86 | 1008.3 |
| 20260903100037 | 55 | 136 | 4.0 | 10.0 | 0.00 | 0.19 | 0.00 | 86 | 1008.2 |
| 20260903094539 | 55 | 132 | 4.0 | 8.0 | 0.00 | 0.19 | 0.00 | 87 | 1008.2 |
| 20260903093040 | 55 | 140 | 3.0 | 8.0 | 0.00 | 0.19 | 0.00 | 88 | 1008.2 |
| 20260903091536 | 55 | 130 | 5.0 | 9.0 | 0.00 | 0.19 | 0.00 | 88 | 1008.2 |
| 20260903090033 | 55 | 144 | 5.0 | 9.0 | 0.00 | 0.19 | 0.00 | 88 | 1008.1 |
| 20260903084533 | 55 | 158 | 4.0 | 10.0 | 0.00 | 0.19 | 0.00 | 88 | 1008.2 |
| 20260903083029 | 55 | 136 | 5.0 | 11.0 | 0.00 | 0.19 | 0.00 | 88 | 1008.1 |
| 20260903081528 | 55 | 133 | 4.0 | 7.0 | 0.00 | 0.19 | 0.00 | 89 | 1008.0 |
| 20260903080045 | 55 | 130 | 5.0 | 9.0 | 0.00 | 0.19 | 0.00 | 88 | 1008.0 |
| 20260903074526 | 55 | 122 | 5.0 | 9.0 | 0.00 | 0.19 | 0.00 | 88 | 1007.9 |
| 20260903073025 | 55 | 142 | 4.0 | 12.0 | 0.00 | 0.19 | 0.00 | 88 | 1007.9 |
| 20260903071523 | 55 | 137 | 6.0 | 11.0 | 0.00 | 0.19 | 0.00 | 88 | 1007.8 |
| 20260903070019 | 55 | 141 | 6.0 | 10.0 | 0.00 | 0.19 | 0.00 | 89 | 1007.8 |
| 20260903064517 | 55 | 143 | 4.0 | 8.0 | 0.00 | 0.19 | 0.19 | 89 | 1007.8 |
| 20260903063017 | 55 | 163 | 5.0 | 8.0 | 0.00 | 0.19 | 0.19 | 89 | 1007.8 |
| 20260903061518 | 55 | 149 | 6.0 | 11.0 | 0.00 | 0.19 | 0.19 | 90 | 1007.8 |
| 20260903060015 | 55 | 155 | 7.0 | 13.0 | 0.00 | 0.19 | 0.19 | 91 | 1007.8 |
| 20260903054513 | 55 | 122 | 6.0 | 10.0 | 0.00 | 0.19 | 0.19 | 92 | 1007.9 |
| 20260903053011 | 55 | 138 | 5.0 | 10.0 | 0.00 | 0.19 | 0.19 | 92 | 1007.8 |
| 20260903051510 | 55 | 169 | 5.0 | 10.0 | 0.00 | 0.19 | 0.19 | 92 | 1007.8 |
| 20260903050020 | 55 | 139 | 6.0 | 10.0 | 0.00 | 0.19 | 0.19 | 93 | 1007.8 |
| 20260903044517 | 56 | 120 | 4.0 | 10.0 | 0.00 | 0.19 | 0.19 | 92 | 1007.9 |
| 20260903043003 | 56 | 145 | 5.0 | 8.0 | 0.00 | 0.19 | 0.19 | 92 | 1007.7 |
| 20260903041612 | 56 | 138 | 4.0 | 8.0 | 0.00 | 0.19 | 0.19 | 91 | 1007.7 |
| 20260903040120 | 56 | 174 | 4.0 | 6.0 | 0.00 | 0.19 | 0.19 | 91 | 1007.5 |
| 20260903034559 | 57 | 159 | 3.0 | 7.0 | 0.00 | 0.19 | 0.19 | 91 | 1007.3 |
| 20260903033054 | 57 | 148 | 2.0 | 7.0 | 0.00 | 0.19 | 0.19 | 91 | 1007.1 |
| 20260903031556 | 57 | 134 | 3.0 | 8.0 | 0.00 | 0.19 | 0.19 | 91 | 1007.1 |
| 20260903030054 | 57 | 132 | 5.0 | 12.0 | 0.00 | 0.19 | 0.19 | 91 | 1006.8 |
| 20260903024552 | 58 | 151 | 6.0 | 11.0 | 0.00 | 0.19 | 0.19 | 91 | 1006.5 |
| 20260903023052 | 58 | 143 | 3.0 | 5.0 | 0.00 | 0.19 | 0.19 | 89 | 1006.4 |
| 20260903021552 | 58 | 176 | 2.0 | 7.0 | 0.00 | 0.19 | 0.19 | 89 | 1006.3 |
| 20260903020051 | 58 | 118 | 3.0 | 9.0 | 0.01 | 0.19 | 0.19 | 88 | 1006.1 |
| 20260903014553 | 58 | 207 | 4.0 | 9.0 | 0.01 | 0.19 | 0.19 | 89 | 1006.1 |
| 20260903013049 | 58 | 220 | 5.0 | 13.0 | 0.01 | 0.19 | 0.19 | 91 | 1005.9 |
| 20260903011551 | 59 | 180 | 6.0 | 13.0 | 0.01 | 0.19 | 0.19 | 92 | 1006.0 |
| 20260903010048 | 59 | 265 | 3.0 | 11.0 | 0.04 | 0.18 | 0.18 | 94 | 1005.6 |
| 20260903004546 | 59 | 171 | 8.0 | 15.0 | 0.04 | 0.18 | 0.18 | 94 | 1005.3 |
| 20260903003044 | 59 | 163 | 4.0 | 19.0 | 0.04 | 0.18 | 0.18 | 93 | 1005.4 |
| 20260903001558 | 59 | 146 | 6.0 | 12.0 | 0.04 | 0.18 | 0.18 | 93 | 1005.2 |
| 20260903000042 | 60 | 200 | 1.0 | 3.0 | 0.00 | 0.14 | 0.14 | 93 | 1005.0 |
| 20260902234544 | 60 | 96 | 0.0 | 0.0 | 0.01 | 0.14 | 0.14 | 92 | 1004.8 |
| 20260902233039 | 60 | 60 | 0.0 | 2.0 | 0.04 | 0.14 | 0.14 | 92 | 1004.8 |
| 20260902231539 | 60 | 60 | 1.0 | 2.0 | 0.06 | 0.14 | 0.14 | 92 | 1004.7 |
| 20260902230039 | 60 | 60 | 1.0 | 5.0 | 0.07 | 0.14 | 0.14 | 91 | 1004.7 |
| 20260902224543 | 60 | 81 | 2.0 | 5.0 | 0.07 | 0.13 | 0.13 | 90 | 1004.8 |
| 20260902223036 | 60 | 69 | 3.0 | 5.0 | 0.05 | 0.10 | 0.10 | 89 | 1004.9 |
| 20260902221541 | 61 | 99 | 1.0 | 3.0 | 0.05 | 0.08 | 0.08 | 89 | 1004.9 |
| 20260902220044 | 61 | 104 | 2.0 | 4.0 | 0.04 | 0.07 | 0.07 | 88 | 1004.8 |
| 20260902214533 | 61 | 242 | 0.0 | 0.0 | 0.05 | 0.06 | 0.06 | 87 | 1004.9 |
| 20260902213036 | 61 | 243 | 0.0 | 2.0 | 0.04 | 0.05 | 0.05 | 86 | 1004.9 |
| 20260902211534 | 62 | 243 | 0.0 | 4.0 | 0.03 | 0.03 | 0.03 | 85 | 1005.0 |
| 20260902210032 | 62 | 247 | 1.0 | 5.0 | 0.03 | 0.03 | 0.03 | 83 | 1004.9 |
| 20260902204530 | 62 | 214 | 2.0 | 7.0 | 0.01 | 0.01 | 0.01 | 80 | 1004.9 |
| 20260902203030 | 63 | 187 | 4.0 | 10.0 | 0.00 | 0.00 | 0.00 | 77 | 1004.9 |
| 20260902201530 | 64 | 223 | 9.0 | 25.0 | 0.00 | 0.00 | 0.00 | 74 | 1005.0 |
| 20260902200029 | 64 | 205 | 4.0 | 9.0 | 0.00 | 0.00 | 0.00 | 78 | 1005.1 |
| 20260902194525 | 63 | 288 | 4.0 | 11.0 | 0.00 | 0.00 | 0.00 | 80 | 1005.2 |
| 20260902193026 | 63 | 219 | 3.0 | 12.0 | 0.00 | 0.00 | 0.00 | 81 | 1005.4 |
| 20260902191525 | 64 | 226 | 4.0 | 13.0 | 0.00 | 0.00 | 0.00 | 77 | 1005.6 |
| 20260902190038 | 67 | 201 | 7.0 | 24.0 | 0.00 | 0.00 | 0.00 | 65 | 1005.6 |
| 20260902184521 | 68 | 204 | 7.0 | 16.0 | 0.00 | 0.00 | 0.00 | 60 | 1005.3 |
| 20260902183019 | 67 | 223 | 3.0 | 11.0 | 0.00 | 0.00 | 0.00 | 64 | 1005.4 |
| 20260902181515 | 65 | 125 | 5.0 | 12.0 | 0.00 | 0.00 | 0.00 | 69 | 1005.5 |
| 20260902180017 | 63 | 155 | 1.0 | 6.0 | 0.00 | 0.00 | 0.00 | 74 | 1005.7 |
| 20260902174512 | 63 | 176 | 2.0 | 5.0 | 0.00 | 0.00 | 0.00 | 76 | 1005.8 |
| 20260902173008 | 62 | 165 | 1.0 | 5.0 | 0.00 | 0.00 | 0.00 | 79 | 1006.0 |
| 20260902171504 | 62 | 144 | 1.0 | 8.0 | 0.00 | 0.00 | 0.00 | 84 | 1006.2 |
| 20260902170002 | 62 | 200 | 0.0 | 3.0 | 0.00 | 0.00 | 0.00 | 83 | 1006.3 |
| 20260902164603 | 62 | 200 | 1.0 | 2.0 | 0.00 | 0.00 | 0.00 | 83 | 1006.4 |
| 20260902163058 | 61 | 200 | 0.0 | 2.0 | 0.00 | 0.00 | 0.00 | 83 | 1006.6 |
| 20260902161557 | 62 | 199 | 1.0 | 2.0 | 0.00 | 0.00 | 0.00 | 82 | 1006.6 |